Location: Bukit Lungun
(2.6833°N, 113.9667°E)
Time: 13:17:39
(UTC+00:00)

Centaur D-1AR AC-36 - Pass Details

Date: 02 March 2021
Orbit: 560 x 36342 km, 21.8° (Epoch: 13 April)

Event Time Altitude Azimuth Distance (km) Brightness Sun altitude
Rises 03:35:01 0° 284° (WNW) 11,997 7.9 71.8°
Reaches altitude 10° 03:42:14 10° 282° (WNW) 12,877 8.2 73.3°
Drops below altitude 10° 09:58:04 10° 251° (WSW) 38,644 12.9 9.1°
Enters shadow 13:38:07 55° 217° (SW) 2,143 4.2 -45.4°
